Wind_Speed
17 19 21 23 25 28 30 32 33 34 34 35 35 35 34 34 35 34 33 31 30 29 29 29 29 30 32 32 32 33 33 33 34 35 35 35 35 35 36 36 36 36 37 39
12 15 16 19 21 24 27 29 30 31 31 32 32 33 33 33 33 32 31 30 30 30 30 30 30 30 31 32 32 33 33 34 34 34 35 35 35 35 36 36 37 37 37 38
9 10 12 14 18 21 24 25 26 28 28 30 31 31 30 31 31 31 31 30 30 31 31 31 31 31 31 32 33 33 33 34 34 35 35 35 35 35 35 36 36 36 37 38
8 10 11 13 15 17 20 22 24 25 26 27 29 30 29 30 31 32 32 32 31 31 32 31 30 30 30 32 32 33 34 34 34 34 34 34 34 35 35 35 35 35 36 36
10 11 13 14 15 16 18 19 21 22 23 24 27 30 29 29 31 32 32 31 30 30 30 29 28 28 30 31 32 33 33 33 33 33 34 34 34 35 35 36 36 36 36 36
10 11 12 12 13 14 16 17 18 19 20 21 24 26 26 27 28 29 29 29 28 27 26 26 26 28 29 30 31 32 32 32 32 32 32 32 33 33 34 35 35 36 36 37
9 10 11 11 12 13 13 14 15 16 17 18 20 21 21 22 24 24 24 24 24 23 24 25 27 28 28 29 31 32 32 31 30 30 31 31 32 33 33 34 34 35 35 36
6 7 9 10 11 12 12 13 14 14 14 15 17 18 19 20 21 21 22 22 23 24 25 26 26 27 28 29 30 31 31 32 31 31 32 32 33 33 34 34 34 35 35 35
4 5 8 10 11 12 12 12 13 14 14 14 15 17 18 20 20 21 21 22 23 24 25 25 27 28 29 29 30 31 31 32 32 33 33 33 34 34 34 34 35 35 36 36
4 5 7 9 11 11 12 12 14 15 17 16 16 17 18 18 20 21 22 23 24 25 26 28 28 29 30 31 32 33 33 34 35 35 36 36 36 36 35 35 36 36 35 36
6 7 8 10 10 11 12 13 14 16 18 20 19 20 20 21 22 23 25 26 27 28 29 31 32 33 34 35 36 36 37 37 37 38 38 38 38 38 37 36 36 36 35 35
8 9 10 11 11 12 13 15 17 19 20 22 24 25 24 25 26 27 29 30 31 32 34 35 36 37 38 39 40 41 41 41 41 41 41 41 40 40 39 38 37 36 36 35
9 10 11 12 14 15 17 18 20 22 24 25 27 30 29 30 30 31 33 34 35 36 38 39 41 42 44 45 45 46 46 46 45 45 44 44 43 42 41 40 38 37 36 35
11 12 14 15 17 19 19 21 23 25 27 28 29 32 33 34 34 35 36 37 39 40 42 44 46 47 49 49 50 51 50 50 49 48 47 46 45 44 43 41 39 37 36 35
13 14 16 17 19 20 21 22 24 26 29 31 32 33 34 35 36 38 40 42 43 45 47 49 50 52 53 54 55 55 55 54 53 52 50 48 47 45 44 42 40 38 36 35
17 17 18 19 21 23 23 24 26 28 30 32 33 34 35 37 39 41 44 46 48 50 52 53 55 56 57 58 59 59 59 58 58 56 54 51 49 47 45 43 41 38 36 35
19 20 21 21 23 25 26 27 28 30 31 33 35 37 38 40 42 44 47 50 52 55 57 59 60 61 62 63 64 64 63 62 61 59 57 55 52 49 46 44 42 39 36 34
21 22 24 24 25 28 29 29 31 33 35 36 38 39 41 44 46 49 52 56 58 61 62 64 65 66 67 68 69 69 68 67 66 63 60 58 55 51 48 44 42 39 36 34
23 25 27 28 30 32 33 35 37 39 40 41 42 44 47 50 52 54 59 62 64 66 68 70 71 72 73 73 73 72 72 72 69 66 63 60 56 52 49 45 42 40 37 34
25 26 29 31 33 35 38 39 40 42 44 45 48 51 54 56 59 60 62 65 67 69 72 73 74 75 75 75 74 73 72 70 68 65 62 59 56 53 49 46 43 41 38 35
25 28 30 32 35 38 40 41 43 45 48 50 53 56 58 61 64 66 68 70 72 73 74 74 74 74 73 71 70 68 66 64 61 59 57 55 53 51 49 47 44 42 39 36
28 30 32 34 36 38 40 43 44 47 50 53 56 59 62 65 68 70 72 73 74 74 74 73 71 69 66 64 62 60 57 55 53 51 50 49 49 49 49 48 46 42 39 38
30 32 34 35 37 40 42 44 47 50 54 57 60 63 66 69 72 73 74 74 72 70 68 66 64 60 57 54 53 52 49 48 46 44 43 43 44 45 47 48 47 44 40 38
32 33 35 37 40 42 45 47 51 54 58 62 65 68 71 73 74 74 71 68 65 62 59 57 54 51 49 48 47 45 44 43 42 40 40 39 39 41 43 46 48 46 41 39
33 35 37 40 42 44 48 51 55 59 63 66 68 70 71 71 70 67 63 60 56 54 51 49 47 46 44 43 42 42 41 41 39 38 37 37 38 39 40 43 45 47 42 39
35 38 40 43 46 49 52 56 60 63 66 69 71 70 69 67 63 60 56 53 49 46 45 44 43 42 42 41 40 39 39 38 37 36 35 34 34 34 36 40 44 46 42 39
Wind_Direction
231 231 231 232 233 236 239 242 245 249 252 255 258 260 263 265 266 268 270 273 277 283 290 294 295 293 291 291 292 294 295 297 298 299 299 298 298 295 293 291 288 286 284 281
227 229 233 234 233 235 239 242 245 248 250 252 255 257 259 261 263 266 269 273 279 284 289 291 292 291 290 291 293 295 298 300 301 302 302 302 301 299 296 293 289 286 284 282
230 236 237 237 236 236 240 244 246 247 248 251 253 254 257 260 263 267 271 275 279 282 286 288 288 289 290 293 294 296 299 301 302 303 304 304 303 302 300 296 292 288 285 282
247 251 250 249 248 247 247 250 252 253 253 253 256 257 258 262 266 271 274 278 281 283 284 284 286 286 287 291 294 296 299 302 303 305 306 306 305 304 302 300 297 292 287 283
261 261 256 253 255 259 259 261 262 262 260 260 259 261 262 264 267 271 275 278 279 280 281 281 282 284 286 290 294 296 299 301 302 304 306 306 306 305 304 302 299 295 290 286
260 262 261 261 264 267 270 271 270 270 269 267 266 267 268 268 269 271 273 275 277 278 278 278 280 284 287 289 291 293 296 298 300 302 304 306 308 308 307 304 302 298 294 289
263 265 269 272 275 279 281 281 282 279 276 274 273 274 275 274 273 274 275 276 276 275 276 277 280 282 284 286 288 290 294 297 300 302 305 308 309 310 310 309 306 303 298 293
277 279 277 280 280 283 287 289 290 290 285 278 278 280 281 280 280 279 279 278 276 275 277 278 279 280 282 284 286 289 293 296 300 303 305 307 309 310 311 311 310 307 303 298
290 289 290 289 290 290 294 295 296 295 292 286 284 284 282 284 285 286 285 283 281 281 281 281 282 282 283 286 289 292 294 297 300 303 304 306 308 309 309 309 310 309 306 302
341 318 298 301 300 300 299 299 296 297 298 295 292 289 287 288 290 290 289 287 287 285 284 283 284 287 289 291 293 295 297 299 301 302 303 305 306 308 308 308 310 310 308 305
342 331 317 311 310 307 304 300 298 297 297 298 298 295 297 297 295 293 290 289 288 287 287 288 289 291 293 294 296 298 299 300 301 302 302 303 304 306 307 307 308 309 308 306
330 324 319 315 313 308 304 302 300 299 300 300 300 300 300 298 294 292 290 289 288 288 289 290 292 293 295 297 298 299 300 301 301 301 301 301 302 303 304 305 306 307 307 307
326 320 315 310 310 309 306 304 302 301 300 300 301 300 299 296 294 292 291 290 289 290 291 293 294 295 297 298 298 299 299 299 300 300 299 300 300 301 302 303 304 304 305 305
319 315 311 309 306 305 304 302 300 299 298 298 297 295 295 294 293 291 290 290 290 291 292 292 293 294 295 296 296 297 297 298 298 298 297 297 298 298 299 300 300 301 302 303
316 312 307 305 303 302 300 297 293 293 295 295 296 293 293 292 291 291 291 291 291 291 291 292 292 292 293 293 294 294 294 295 295 294 294 294 294 295 295 295 296 297 298 300
316 313 311 308 305 304 303 301 298 297 296 296 295 294 294 293 292 292 292 292 292 292 291 291 291 291 292 292 292 292 292 292 292 291 291 290 290 290 290 290 291 293 293 295
316 313 313 311 307 306 304 304 302 300 300 299 298 298 297 296 296 295 295 294 294 293 292 292 291 290 290 290 290 290 289 289 289 289 288 287 286 286 285 285 286 287 288 289
317 316 314 313 310 307 309 306 305 305 304 302 301 301 300 299 297 296 295 294 293 293 292 291 290 289 289 289 289 288 288 288 288 287 286 284 283 282 280 279 279 280 281 282
319 317 316 316 314 313 312 312 312 310 308 307 306 304 301 299 298 295 293 294 294 293 292 292 291 290 290 290 289 288 287 287 286 285 283 281 279 276 274 272 271 272 273 274
319 317 316 316 315 313 313 313 313 312 309 309 305 303 302 300 299 298 296 294 294 293 293 293 293 292 292 291 290 290 289 287 285 282 280 277 274 271 268 264 262 263 265 266
317 316 315 315 314 312 314 314 313 310 309 308 307 306 305 304 303 302 300 299 298 297 296 295 294 293 293 293 292 291 290 289 286 282 278 274 269 266 261 256 254 254 255 258
320 319 318 317 317 315 316 314 313 312 311 310 309 308 306 305 304 303 302 301 300 299 298 297 297 296 296 295 294 294 292 291 289 285 279 272 266 261 255 249 246 246 249 251
323 322 321 321 320 320 319 318 317 315 314 313 311 310 308 307 306 305 304 303 302 302 301 300 299 299 298 297 297 296 294 292 290 287 281 274 266 259 252 245 240 237 241 244
325 325 325 324 324 323 322 320 319 318 317 315 314 312 311 309 308 307 307 307 306 305 305 304 303 302 301 299 298 298 296 293 292 290 285 276 267 259 251 242 235 231 233 236
328 328 328 327 327 325 323 322 321 320 318 316 315 313 312 311 310 310 310 309 308 308 307 307 306 305 304 302 300 299 298 295 293 292 289 279 270 262 252 240 230 226 227 227
330 330 329 328 328 327 325 324 322 321 319 318 317 316 315 315 315 314 314 313 312 311 310 310 309 308 306 304 302 301 299 297 295 294 292 284 274 262 251 235 226 222 222 219
Height
5861 5863 5864 5866 5868 5870 5872 5874 5875 5877 5879 5880 5880 5881 5881 5881 5881 5880 5880 5879 5878 5877 5876 5874 5872 5870 5867 5865 5862 5860 5857 5855 5852 5850 5847 5844 5842 5840 5838 5836 5833 5832 5830 5828
5860 5861 5862 5863 5864 5866 5867 5869 5870 5872 5873 5874 5874 5875 5875 5875 5874 5874 5874 5873 5873 5872 5870 5869 5866 5864 5861 5858 5856 5853 5850 5847 5845 5842 5840 5837 5835 5832 5830 5827 5825 5823 5821 5819
5859 5860 5860 5861 5862 5863 5864 5865 5866 5867 5868 5868 5869 5869 5869 5869 5868 5868 5868 5868 5867 5866 5864 5862 5860 5858 5855 5852 5850 5847 5844 5841 5838 5835 5833 5830 5827 5824 5822 5819 5816 5814 5812 5810
5859 5859 5860 5860 5860 5861 5861 5862 5862 5863 5864 5864 5864 5864 5865 5864 5863 5863 5862 5862 5861 5860 5858 5856 5854 5852 5849 5846 5843 5840 5837 5834 5831 5828 5825 5823 5819 5816 5813 5810 5807 5804 5802 5800
5858 5858 5859 5859 5859 5859 5859 5859 5859 5859 5859 5859 5859 5858 5860 5859 5858 5857 5857 5856 5855 5854 5852 5851 5848 5846 5843 5840 5837 5834 5831 5828 5825 5822 5819 5815 5812 5808 5805 5801 5798 5795 5793 5790
5857 5857 5857 5857 5857 5857 5856 5856 5856 5855 5855 5855 5854 5854 5854 5854 5853 5852 5852 5851 5850 5848 5847 5845 5843 5840 5837 5834 5831 5828 5825 5822 5819 5816 5812 5808 5804 5800 5797 5793 5789 5786 5783 5780
5856 5856 5855 5855 5855 5855 5854 5854 5853 5852 5851 5851 5850 5850 5850 5848 5848 5847 5847 5846 5844 5843 5841 5839 5837 5834 5831 5828 5825 5821 5818 5815 5812 5808 5805 5801 5797 5793 5789 5785 5781 5777 5774 5771
5854 5855 5854 5853 5853 5852 5852 5852 5851 5850 5849 5848 5847 5846 5846 5844 5843 5843 5842 5840 5838 5836 5835 5833 5830 5827 5824 5821 5818 5815 5811 5808 5804 5801 5797 5793 5789 5785 5781 5777 5773 5769 5765 5762
5854 5854 5853 5852 5851 5850 5849 5849 5848 5847 5846 5845 5844 5843 5842 5840 5839 5838 5836 5834 5833 5830 5828 5825 5822 5819 5817 5814 5810 5807 5804 5800 5796 5792 5789 5785 5781 5777 5773 5769 5765 5760 5756 5752
5853 5852 5851 5850 5849 5848 5847 5846 5845 5843 5842 5840 5840 5839 5838 5836 5835 5833 5830 5828 5825 5823 5820 5817 5814 5811 5808 5805 5802 5798 5795 5791 5787 5784 5780 5776 5773 5769 5765 5761 5756 5752 5747 5743
5851 5851 5850 5848 5847 5845 5845 5843 5841 5840 5838 5836 5834 5835 5833 5831 5829 5826 5823 5820 5817 5814 5811 5808 5805 5802 5799 5795 5792 5789 5785 5782 5778 5774 5771 5767 5764 5760 5756 5752 5748 5743 5739 5735
5850 5849 5847 5846 5845 5843 5841 5840 5838 5836 5834 5831 5829 5829 5826 5823 5821 5818 5815 5812 5809 5805 5802 5799 5795 5792 5789 5785 5782 5778 5775 5772 5768 5765 5761 5758 5754 5751 5747 5743 5739 5735 5731 5727
5849 5848 5846 5844 5844 5841 5838 5836 5833 5831 5829 5826 5823 5823 5818 5815 5812 5809 5806 5802 5799 5796 5792 5789 5785 5781 5778 5774 5771 5768 5764 5761 5758 5754 5751 5748 5744 5741 5737 5734 5730 5726 5722 5718
5847 5846 5844 5842 5839 5837 5834 5832 5828 5826 5823 5820 5818 5814 5810 5806 5803 5800 5796 5793 5789 5786 5782 5778 5774 5770 5767 5763 5759 5756 5752 5749 5745 5742 5739 5736 5733 5730 5727 5724 5720 5717 5714 5710
5845 5843 5840 5838 5835 5832 5830 5827 5824 5821 5817 5813 5810 5806 5802 5799 5795 5791 5787 5783 5779 5775 5771 5766 5762 5758 5754 5750 5746 5742 5739 5735 5732 5729 5727 5724 5721 5718 5716 5713 5710 5707 5705 5701
5841 5839 5837 5834 5830 5827 5825 5822 5818 5815 5811 5807 5802 5799 5794 5790 5786 5781 5777 5772 5767 5763 5758 5753 5748 5743 5739 5735 5731 5727 5724 5720 5717 5714 5712 5710 5708 5706 5704 5702 5700 5697 5695 5693
5838 5835 5832 5830 5826 5822 5820 5816 5812 5808 5804 5799 5794 5791 5785 5780 5776 5770 5765 5759 5754 5748 5743 5737 5732 5727 5722 5717 5713 5709 5706 5703 5700 5697 5695 5694 5692 5691 5691 5689 5688 5687 5685 5683
5834 5830 5827 5824 5822 5817 5816 5809 5805 5800 5796 5791 5786 5781 5775 5770 5765 5759 5751 5745 5739 5733 5726 5720 5714 5708 5703 5698 5693 5689 5685 5682 5680 5678 5677 5676 5675 5675 5675 5675 5675 5675 5674 5673
5829 5825 5822 5818 5814 5810 5806 5801 5796 5791 5786 5781 5775 5770 5764 5758 5753 5747 5738 5730 5723 5715 5708 5701 5694 5687 5681 5676 5671 5667 5664 5660 5658 5656 5656 5656 5656 5657 5658 5660 5661 5662 5663 5663
5825 5821 5817 5812 5807 5803 5799 5793 5787 5782 5776 5770 5764 5758 5751 5744 5738 5732 5723 5714 5705 5696 5688 5680 5672 5665 5658 5652 5646 5643 5639 5636 5634 5633 5633 5633 5634 5636 5639 5642 5645 5648 5650 5651
5821 5816 5812 5807 5801 5796 5791 5785 5780 5774 5768 5760 5752 5744 5736 5727 5719 5711 5701 5692 5682 5673 5665 5656 5649 5642 5635 5628 5623 5619 5615 5611 5609 5608 5609 5610 5611 5614 5619 5623 5628 5632 5636 5638
5814 5810 5805 5800 5795 5791 5783 5777 5771 5764 5755 5747 5739 5730 5720 5711 5701 5691 5681 5670 5660 5650 5641 5632 5624 5618 5612 5605 5599 5596 5593 5589 5587 5586 5586 5587 5589 5592 5597 5603 5609 5615 5621 5625
5808 5803 5798 5793 5789 5781 5774 5767 5760 5752 5743 5734 5725 5715 5703 5692 5682 5670 5659 5649 5638 5628 5619 5611 5603 5598 5593 5586 5581 5577 5574 5570 5568 5567 5566 5566 5568 5571 5576 5582 5590 5598 5605 5611
5802 5796 5791 5785 5779 5772 5765 5757 5749 5740 5730 5720 5709 5697 5685 5673 5661 5650 5638 5628 5618 5609 5600 5593 5586 5581 5576 5571 5565 5560 5557 5554 5552 5550 5549 5548 5549 5552 5556 5563 5572 5581 5589 5596
5796 5790 5784 5778 5771 5764 5757 5747 5738 5728 5717 5705 5693 5680 5667 5654 5642 5631 5620 5611 5601 5593 5586 5578 5572 5566 5562 5557 5552 5547 5543 5539 5537 5535 5534 5533 5533 5535 5539 5545 5554 5563 5573 5582
5790 5784 5777 5770 5763 5755 5746 5736 5726 5715 5703 5690 5677 5664 5650 5635 5624 5614 5604 5595 5587 5580 5573 5567 5560 5555 5549 5544 5539 5535 5530 5526 5524 5522 5519 5518 5517 5519 5523 5529 5537 5547 5557 5568